Weather History for Defiance, OH

Change the Weather History Date:

Tuesday, December 31, 2013

  Actual Average Record
Temperature  
Mean Temperature 17 °F -  
Max Temperature 19 °F 33 °F 61 °F (2004)
Min Temperature 15 °F 17 °F -13 °F (1983)
Degree Days  
Heating Degree Days 48    
Moisture  
Dew Point 10 °F    
Average Humidity 74    
Maximum Humidity 81    
Minimum Humidity 59    
Precipitation  
Precipitation 0.00 in - - ()
Sea Level Pressure  
Sea Level Pressure 30.25 in    
Wind  
Wind Speed 8 mph (WSW)    
Max Wind Speed 14 mph    
Max Gust Speed 23 mph    
Visibility 6 miles    
Events Snow    
Averages and records for this station are not official NWS values.
T = Trace of Precipitation, MM = Missing Value Source: NWS Daily Summary

Daily Weather History Graph

Daily Weather History Graph

Search for Another Location

Airport:

Trip Planner

Search our weather history database for the weather conditions in past years. The results will help you decide how hot, cold, wet, or windy it might be!

Date:

Astronomy

Dec. 31, 2013 Rise Set
Actual Time 8:03 AM EST 5:18 PM EST
Civil Twilight 7:32 AM EST 5:49 PM EST
Nautical Twilight 6:57 AM EST 6:24 PM EST
Astronomical Twilight 6:24 AM EST 6:57 PM EST
Moon 6:55 AM EST (12/31) 4:54 PM EST (12/31)
Length of Visible Light 10h 17m
Length of Day
9h 14m
Waning Crescent, 1% of the Moon is Illuminated
Dec 31
Waning Crescent
Jan 1
New
Jan 7
First Quarter
Jan 15
Full
Jan 24
Last Quarter

Hourly Weather History & Observations

Time (EST) Temp. Windchill Dew Point Humidity Pressure Visibility Wind Dir Wind Speed Gust Speed Precip Events Conditions
12:31 AM 19.4 °F 11.5 °F 12.2 °F 74% 30.14 in 2.5 mi WSW 5.8 mph 17.3 mph 0.00 in Snow Light Snow
12:41 AM 19.4 °F 11.5 °F 12.2 °F 74% 30.13 in 5.0 mi WSW 5.8 mph - 0.00 in Snow Light Snow
12:53 AM 19.0 °F 10.0 °F 12.9 °F 77% 30.17 in 4.0 mi WSW 6.9 mph - 0.00 in Snow Light Snow
1:01 AM 19.4 °F 11.5 °F 12.2 °F 74% 30.13 in 2.0 mi Variable 5.8 mph - 0.00 in Snow Light Snow
1:08 AM 19.4 °F 8.6 °F 12.2 °F 74% 30.13 in 1.5 mi WSW 9.2 mph - 0.00 in Snow Light Snow
1:53 AM 19.0 °F 8.2 °F 14.0 °F 81% 30.16 in 2.0 mi WSW 9.2 mph - 0.00 in Snow Light Snow
1:57 AM 19.4 °F 7.9 °F 12.2 °F 74% 30.12 in 3.0 mi WSW 10.4 mph - 0.00 in Snow Light Snow
2:05 AM 19.4 °F 10.4 °F 12.2 °F 74% 30.12 in 2.0 mi Variable 6.9 mph - 0.00 in Snow Light Snow
2:15 AM 17.6 °F 6.4 °F 12.2 °F 79% 30.12 in 2.5 mi West 9.2 mph - 0.00 in Snow Light Snow
2:23 AM 17.6 °F 6.4 °F 12.2 °F 79% 30.12 in 4.0 mi WSW 9.2 mph - 0.00 in Snow Light Snow
2:30 AM 17.6 °F 5.7 °F 12.2 °F 79% 30.12 in 5.0 mi WSW 10.4 mph - 0.00 in Snow Light Snow
2:53 AM 18.0 °F 6.1 °F 10.9 °F 74% 30.17 in 4.0 mi West 10.4 mph 16.1 mph 0.00 in Snow Light Snow
3:53 AM 16.0 °F 4.4 °F 10.0 °F 77% 30.16 in 5.0 mi West 9.2 mph - 0.00 in Snow Light Snow
4:53 AM 16.0 °F 4.4 °F 10.0 °F 77% 30.15 in 7.0 mi West 9.2 mph - 0.00 in Snow Light Snow
5:53 AM 16.0 °F 4.4 °F 9.0 °F 74% 30.18 in 10.0 mi West 9.2 mph - 0.00 in   Overcast
6:53 AM 16.0 °F 5.3 °F 7.0 °F 68% 30.19 in 10.0 mi West 8.1 mph - 0.00 in   Overcast
7:53 AM 15.1 °F 5.2 °F 7.0 °F 70% 30.20 in 10.0 mi Variable 6.9 mph - N/A   Overcast
8:06 AM 15.8 °F 6.1 °F 6.8 °F 68% 30.18 in 10.0 mi Variable 6.9 mph - N/A   Overcast
8:53 AM 16.0 °F 7.4 °F 7.0 °F 68% 30.26 in 6.0 mi Variable 5.8 mph 16.1 mph 0.00 in Snow Light Snow
9:53 AM 17.1 °F 5.8 °F 9.0 °F 71% 30.29 in 10.0 mi SW 9.2 mph 17.3 mph 0.00 in   Overcast
10:09 AM 17.6 °F 6.4 °F 8.6 °F 68% 30.27 in 10.0 mi WSW 9.2 mph 17.3 mph N/A   Overcast
10:48 AM 17.6 °F 3.7 °F 8.6 °F 68% 30.29 in 10.0 mi SW 13.8 mph 20.7 mph N/A   Overcast
10:53 AM 16.0 °F 2.9 °F 8.1 °F 71% 30.33 in 10.0 mi SW 11.5 mph 20.7 mph N/A   Overcast
11:21 AM 17.6 °F 5.7 °F 8.6 °F 68% 30.30 in 10.0 mi WSW 10.4 mph 23.0 mph N/A   Overcast
11:53 AM 17.1 °F 3.6 °F 8.1 °F 68% 30.35 in 10.0 mi SW 12.7 mph 19.6 mph N/A   Overcast
12:53 PM 18.0 °F 6.9 °F 8.1 °F 65% 30.35 in 9.0 mi WSW 9.2 mph 21.9 mph N/A   Overcast
1:53 PM 18.0 °F 6.9 °F 7.0 °F 62% 30.33 in 10.0 mi WSW 9.2 mph 18.4 mph 0.00 in   Scattered Clouds
2:53 PM 18.0 °F 6.9 °F 6.1 °F 60% 30.31 in 10.0 mi SW 9.2 mph 16.1 mph N/A   Mostly Cloudy
3:53 PM 19.0 °F 9.0 °F 7.0 °F 59% 30.33 in 10.0 mi WSW 8.1 mph - N/A   Mostly Cloudy
4:53 PM 19.0 °F 10.0 °F 8.1 °F 62% 30.33 in 10.0 mi WSW 6.9 mph - N/A   Overcast
5:53 PM 18.0 °F 6.9 °F 9.0 °F 68% 30.33 in 10.0 mi WSW 9.2 mph - N/A   Overcast
6:53 PM 18.0 °F 9.8 °F 10.9 °F 74% 30.33 in 4.0 mi WSW 5.8 mph - 0.00 in Snow Light Snow
7:53 PM 18.0 °F 9.8 °F 12.9 °F 81% 30.35 in 3.0 mi WSW 5.8 mph - 0.00 in Snow Light Snow
8:12 PM 17.6 °F 10.7 °F 12.2 °F 79% 30.31 in 2.5 mi SW 4.6 mph - 0.00 in Snow Light Snow
8:34 PM 17.6 °F 12.3 °F 12.2 °F 79% 30.31 in 4.0 mi WSW 3.5 mph - 0.00 in Snow Light Snow
8:53 PM 18.0 °F 12.7 °F 12.9 °F 81% 30.34 in 2.5 mi WSW 3.5 mph - 0.00 in Snow Light Snow
9:15 PM 17.6 °F 10.7 °F 12.2 °F 79% 30.30 in 2.0 mi Variable 4.6 mph - 0.00 in Snow Light Snow
9:26 PM 17.6 °F 12.3 °F 12.2 °F 79% 30.30 in 2.5 mi Variable 3.5 mph - 0.00 in Snow Light Snow
9:38 PM 17.6 °F 10.7 °F 12.2 °F 79% 30.30 in 2.0 mi NW 4.6 mph - 0.00 in Snow Light Snow
9:44 PM 17.6 °F 7.3 °F 12.2 °F 79% 30.30 in 3.0 mi NW 8.1 mph - 0.00 in Snow Light Snow
9:53 PM 18.0 °F 8.7 °F 12.9 °F 81% 30.34 in 3.0 mi NW 6.9 mph - 0.00 in Snow Light Snow
10:53 PM 18.0 °F 9.8 °F 12.9 °F 81% 30.37 in 8.0 mi Variable 5.8 mph - 0.00 in Snow Light Snow
11:37 PM 17.6 °F 8.2 °F 12.2 °F 79% 30.31 in 2.5 mi North 6.9 mph - 0.00 in Snow Light Snow
11:53 PM 18.0 °F 12.7 °F 12.9 °F 81% 30.36 in 2.0 mi Variable 3.5 mph - 0.00 in Snow Light Snow